Location: Chuathbaluk
(61.5726°N, 159.2454°W)
Time: 13:23:58
(UTC+00:00)

XW-2B - Visible Passes

Search period start: 16 January 2021 00:00
Search period end: 26 January 2021 00:00
Orbit: 506 x 526 km, 97.5° (Epoch: 16 January)

Date Brightness Start Highest point End Pass type
(mag) Time Alt. Az. Time Alt. Az. Time Alt. Az.
16 Jan ? 03:49:31 10° S 03:53:09 49° W 03:56:51 10° NNW visible
16 Jan ? 15:12:21 10° ENE 15:13:18 11° E 15:14:16 10° E visible
16 Jan ? 16:44:28 10° NNE 16:48:14 56° ESE 16:51:59 10° S visible
16 Jan ? 18:18:51 10° N 18:22:07 28° WNW 18:25:23 10° WSW visible
17 Jan ? 03:34:38 10° S 03:38:22 66° WSW 03:42:09 10° NNW visible
17 Jan ? 05:11:38 10° WSW 05:13:13 12° W 05:14:48 10° WNW visible
17 Jan ? 16:29:46 10° NNE 16:33:26 42° E 16:37:04 10° S visible
17 Jan ? 18:03:59 10° N 18:07:28 34° WNW 18:10:57 10° SW visible
18 Jan ? 03:19:51 10° SSE 03:23:36 87° WSW 03:27:25 10° NNW visible
18 Jan ? 04:55:56 10° SW 04:58:17 16° W 05:00:39 10° NW visible
18 Jan ? 16:15:07 10° NNE 16:18:36 32° E 16:22:05 10° SSE visible
18 Jan ? 17:49:09 10° N 17:52:49 44° WNW 17:56:27 10° SW visible
19 Jan ? 03:05:08 10° SSE 03:08:52 71° ENE 03:12:39 10° NNW visible
19 Jan ? 04:40:31 10° SW 04:43:22 20° W 04:46:15 10° NW visible
19 Jan ? 16:00:32 10° NE 16:03:45 25° E 16:06:58 10° SSE visible
19 Jan ? 17:34:21 10° NNE 17:38:07 57° WNW 17:41:52 10° SW visible
20 Jan ? 04:25:18 10° SSW 04:28:29 26° W 04:31:43 10° NW visible
20 Jan ? 15:46:00 10° NE 15:48:52 20° E 15:51:44 10° SE visible
20 Jan ? 17:19:33 10° NNE 17:23:24 75° WNW 17:27:13 10° SSW visible
21 Jan ? 04:10:12 10° SSW 04:13:38 33° W 04:17:07 10° NNW visible
21 Jan ? 15:31:37 10° NE 15:33:57 15° E 15:36:19 10° ESE visible
21 Jan ? 17:04:48 10° NNE 17:08:39 83° ESE 17:12:29 10° SSW visible
22 Jan ? 03:55:12 10° S 03:58:48 44° W 04:02:28 10° NNW visible
22 Jan ? 15:17:29 10° ENE 15:19:02 12° E 15:20:34 10° ESE visible
22 Jan ? 16:50:04 10° NNE 16:53:53 63° ESE 16:57:41 10° S visible
22 Jan ? 18:24:31 10° N 18:27:42 26° NW 18:30:55 10° WSW visible
23 Jan ? 03:40:17 10° S 03:44:01 59° WSW 03:47:47 10° NNW visible
23 Jan ? 05:17:45 10° W 05:18:54 11° W 05:20:05 10° WNW visible
23 Jan ? 16:35:22 10° NNE 16:39:06 47° E 16:42:47 10° S visible
23 Jan ? 18:09:38 10° N 18:13:04 32° WNW 18:16:30 10° WSW visible
24 Jan ? 03:25:27 10° SSE 03:29:13 79° WSW 03:33:03 10° NNW visible
24 Jan ? 05:01:49 10° WSW 05:03:58 14° W 05:06:07 10° NW visible
24 Jan ? 16:20:41 10° NNE 16:24:16 36° E 16:27:49 10° SSE visible
24 Jan ? 17:54:47 10° N 17:58:24 40° WNW 18:02:00 10° SW visible
25 Jan ? 03:10:42 10° SSE 03:14:28 79° ENE 03:18:17 10° NNW visible
25 Jan ? 04:46:19 10° SW 04:49:02 19° W 04:51:46 10° NW visible
25 Jan ? 16:06:04 10° NNE 16:09:25 28° E 16:12:45 10° SSE visible
25 Jan ? 17:39:58 10° N 17:43:43 52° WNW 17:47:26 10° SW visible
